Location: C�gliari
(39.2170°N, 9.1170°E)
Time: 02:36:28
(UTC+01:00)

ISS - Visible Passes

Search period start: 08 December 2021 00:00
Search period end: 18 December 2021 00:00
Orbit: 417 x 422 km, 51.6° (Epoch: 07 December)

Date Brightness Start Highest point End Pass type
(mag) Time Alt. Az. Time Alt. Az. Time Alt. Az.
08 Dec -3.2 18:05:01 10° WNW 18:08:23 61° SW 18:11:43 10° SE visible
09 Dec -0.3 18:56:23 10° WSW 18:57:22 11° SW 18:58:22 10° SW visible
10 Dec -0.8 18:07:41 10° W 18:10:10 19° SW 18:12:39 10° S visible
16 Dec -0.4 06:53:59 10° SSE 06:55:58 15° SE 06:57:58 10° E visible
